Wind_Gust
10 6 6 9 11 13 14 14 13 13 15 17 18 17 16 17 16 16 13 9 7 10 13 12 12 13 11 7 8 11 12 12 14 15 16 19 20 20 21 19 20 21
10 11 9 8 8 11 15 15 15 15 16 15 16 16 16 18 17 17 17 13 8 9 11 11 10 11 12 11 12 12 12 13 13 12 15 17 19 19 21 22 20 18
13 11 10 10 12 10 10 11 13 16 17 17 17 18 17 16 17 18 17 16 14 11 7 6 8 10 11 12 14 14 15 13 14 14 18 20 20 18 21 20 20 19
15 14 13 12 11 9 9 12 14 16 17 19 19 21 21 21 20 20 20 19 16 15 10 4 8 9 9 11 12 15 15 14 13 11 15 16 15 17 17 17 18 20
15 15 14 13 13 13 14 14 14 15 16 17 19 20 21 22 22 22 24 24 23 20 16 13 9 8 8 9 9 11 10 13 12 13 16 16 19 20 21 18 19 21
12 12 12 13 14 14 18 17 16 17 17 18 20 20 21 23 22 23 24 25 25 23 22 19 16 12 8 8 10 10 12 13 14 13 16 18 17 16 17 16 17 16
14 13 14 15 14 15 16 16 17 18 19 20 19 20 21 23 24 24 23 23 23 24 23 28 31 30 19 12 11 12 12 13 14 14 16 17 17 17 13 13 15 18
14 14 15 17 16 16 16 17 19 21 20 20 20 21 22 23 24 23 23 24 22 22 25 31 34 34 32 28 29 28 24 16 15 16 16 17 16 17 14 16 20 20
15 16 17 16 17 16 17 19 20 21 22 21 21 21 21 23 24 24 23 25 23 25 25 31 30 32 32 30 30 28 26 26 24 18 17 17 19 19 18 16 17 20
15 17 17 17 16 17 18 18 21 21 20 20 20 20 22 23 23 23 23 25 25 27 24 24 26 25 25 24 22 23 24 26 26 26 21 16 16 18 18 17 18 21
13 14 16 16 16 17 19 18 19 19 18 19 20 20 18 19 23 22 23 25 28 28 22 27 25 26 27 27 25 23 23 24 25 25 25 23 18 18 15 15 14 15
15 16 18 19 20 19 18 17 17 16 17 16 17 19 18 18 20 21 24 24 25 27 20 25 26 27 27 28 27 27 25 24 23 24 25 25 24 18 15 13 14 14
16 16 18 18 20 20 20 20 20 18 17 16 15 16 17 17 18 19 20 21 24 25 23 22 25 27 30 30 29 28 26 25 25 24 24 25 24 23 17 14 13 14
13 13 15 16 17 19 20 21 20 20 20 19 16 15 16 17 16 18 18 19 22 21 22 21 25 29 33 34 31 29 28 25 23 23 23 24 23 24 19 14 14 14
8 9 10 12 14 16 18 19 20 20 20 20 19 20 17 16 15 16 17 20 20 19 20 22 26 28 30 34 32 32 29 26 23 23 23 22 22 22 21 17 14 13
12 10 11 11 13 15 17 17 18 18 19 20 21 21 19 19 18 17 19 22 23 22 21 22 27 28 37 34 29 31 29 27 24 22 21 21 21 21 20 19 14 11
13 15 14 14 12 13 14 16 16 17 17 17 19 19 20 21 22 22 20 21 23 23 21 19 21 32 35 31 32 35 33 27 24 22 21 21 19 19 19 18 17 12
11 13 15 15 13 13 13 14 15 16 16 15 17 18 19 18 21 23 21 20 22 23 22 22 21 27 32 34 34 36 33 32 23 21 22 19 18 19 18 17 17 17
14 12 13 17 18 15 10 12 13 15 16 15 17 17 16 18 19 22 22 22 22 24 23 24 21 27 31 34 34 36 36 31 22 24 20 20 25 24 22 21 19 17
16 17 15 17 19 19 18 14 11 14 14 13 12 15 17 17 17 19 18 19 21 21 21 21 20 26 31 33 34 35 35 28 23 25 25 25 26 26 26 26 26 25
16 17 17 16 18 19 20 19 17 14 14 12 11 13 16 18 18 17 18 17 17 18 19 21 22 26 29 31 33 34 34 23 24 27 25 25 25 25 26 27 28 30
15 15 16 16 18 19 19 20 18 18 18 14 12 10 14 14 14 13 16 17 17 17 19 21 22 25 29 30 32 33 32 28 29 28 26 25 27 28 26 27 28 30
9 12 12 11 13 16 19 19 18 18 18 16 16 11 13 16 15 17 17 16 17 18 20 21 21 24 28 30 30 33 28 26 28 28 26 27 27 26 26 25 24 27
7 7 8 9 12 16 17 18 17 17 18 17 18 18 16 15 15 17 18 16 16 17 20 20 21 23 27 29 29 31 29 24 25 25 23 27 26 25 25 24 26 34
10 10 9 9 13 13 15 17 16 17 16 17 17 18 18 14 16 18 18 17 17 16 18 20 19 21 25 28 29 30 31 24 24 22 22 26 26 26 23 24 25 25
7 7 9 10 10 11 13 13 11 13 16 16 15 16 17 17 16 17 17 18 17 18 18 18 19 20 25 28 29 29 30 28 23 25 27 25 25 27 28 25 25 25
Wind_Speed
6 4 4 6 6 7 8 8 7 7 7 9 8 8 8 8 9 9 8 5 4 5 5 6 7 8 6 4 5 6 6 7 6 5 6 10 10 12 12 10 12 11
6 6 5 5 5 4 6 7 8 8 9 8 8 8 8 8 9 8 9 8 4 4 6 7 6 7 7 7 7 7 6 6 7 6 8 10 8 8 10 14 13 10
8 7 6 6 6 4 5 6 7 8 8 9 10 10 9 9 10 9 9 9 8 7 4 3 4 6 6 7 8 8 7 7 8 6 7 9 8 9 12 12 10 12
8 8 7 7 6 6 6 6 6 6 7 8 10 10 10 11 11 12 12 13 10 9 6 2 5 5 6 7 7 7 8 8 6 6 8 7 7 8 7 7 8 9
7 8 7 7 8 8 8 8 8 8 9 9 9 10 11 12 12 12 12 12 13 12 10 8 6 5 5 5 5 6 6 6 7 8 9 9 8 8 10 9 11 12
7 7 7 8 8 8 8 9 9 9 10 11 11 9 10 11 12 13 13 13 12 13 13 11 10 8 5 5 6 6 6 7 8 8 9 9 10 8 8 9 8 7
9 8 9 9 9 8 8 8 10 10 11 11 10 11 11 12 13 12 13 12 13 11 12 17 18 18 13 9 7 8 7 7 8 9 10 9 9 10 8 7 7 9
9 9 9 9 9 9 10 10 11 11 11 11 12 11 12 12 14 11 11 13 11 13 14 11 13 12 13 13 14 16 15 10 8 9 9 9 9 10 8 8 9 10
9 9 9 9 9 9 10 11 11 10 10 12 11 11 11 12 13 13 13 14 13 14 13 12 13 10 11 12 12 13 13 14 14 11 10 10 10 10 10 9 10 10
8 7 8 8 9 10 11 10 10 9 10 11 11 10 11 11 13 13 12 15 13 15 12 14 14 14 14 13 13 13 13 14 14 15 13 10 10 10 10 9 10 11
8 9 10 10 10 9 10 10 9 9 8 10 10 10 9 10 11 11 12 14 14 15 11 15 14 15 16 15 14 13 13 13 14 13 14 14 11 10 10 9 8 9
9 10 11 12 12 12 11 10 9 9 8 8 9 9 9 9 10 10 11 13 13 14 10 12 14 14 14 15 15 15 14 13 12 13 12 13 15 11 9 8 8 9
9 9 9 10 11 11 11 11 11 11 10 9 8 8 9 9 9 10 10 11 11 12 13 11 14 15 15 16 16 16 15 14 13 13 13 11 13 14 10 8 8 8
6 6 7 8 8 9 10 11 11 11 12 11 10 9 9 10 9 10 9 9 11 10 12 11 14 16 17 18 18 16 15 15 13 12 12 13 14 14 12 8 8 9
5 5 5 6 7 8 9 10 10 10 11 11 11 11 9 9 9 9 10 12 12 11 11 12 13 14 14 15 15 17 17 14 13 13 13 12 12 12 13 11 8 8
8 6 6 6 7 8 9 8 8 8 9 9 10 10 11 11 11 10 11 13 13 12 11 10 11 10 20 26 21 17 16 14 13 12 12 12 12 12 11 12 9 7
7 8 7 7 6 6 7 8 9 7 8 8 9 10 10 11 12 13 12 11 13 13 13 10 9 14 24 22 24 27 21 15 13 12 11 10 11 10 11 11 10 8
6 6 8 8 7 6 6 7 7 8 8 8 9 10 10 10 12 11 11 11 10 11 11 11 11 20 23 24 24 25 23 16 10 10 11 10 10 11 10 10 10 10
9 7 8 11 11 9 6 5 7 7 8 7 9 9 9 10 11 10 10 10 10 12 12 12 11 20 23 25 25 25 26 19 11 13 10 11 14 14 13 13 11 9
10 10 9 10 11 11 10 9 7 8 7 5 5 7 9 9 9 10 9 10 10 11 11 11 11 19 23 24 24 25 25 18 12 13 12 13 13 13 14 15 15 15
9 9 9 9 10 11 11 11 10 9 9 7 6 7 9 9 9 9 10 10 10 10 10 11 11 20 22 23 24 25 24 16 13 12 12 12 13 15 14 14 14 14
7 7 7 7 9 10 11 11 11 11 11 9 7 6 7 7 8 7 9 10 10 10 10 11 11 19 22 23 24 25 23 14 15 14 14 13 12 14 14 14 13 14
4 5 6 6 8 10 11 11 10 11 10 9 9 7 7 9 9 10 9 9 10 10 11 10 11 17 22 23 23 27 19 12 13 13 13 14 13 14 13 13 12 15
5 5 5 6 7 10 10 9 9 9 10 9 10 10 9 9 8 9 9 9 9 10 11 11 10 15 21 22 23 25 21 13 12 12 11 13 12 13 11 12 15 26
5 6 6 6 8 7 7 8 8 8 7 7 8 8 9 7 7 7 8 8 8 9 14 12 10 13 19 21 23 23 19 13 12 11 11 13 12 12 11 12 13 15
4 5 6 6 6 7 6 6 4 4 6 6 6 6 6 6 5 6 7 8 7 9 9 10 11 11 16 22 22 22 23 14 11 12 15 13 12 12 13 13 12 13
Wind_Direction
20 10 13 28 23 15 5 356 351 350 355 359 356 348 348 343 346 347 344 324 308 293 302 302 297 290 286 272 252 257 257 254 261 261 256 254 251 234 232 233 235 224
14 21 28 41 32 28 15 358 358 2 1 355 350 344 342 342 346 346 339 336 317 281 262 252 265 282 292 294 285 274 269 263 258 244 255 263 265 269 265 245 235 235
24 24 27 26 19 20 22 19 10 5 2 358 355 354 348 349 346 342 340 338 340 328 302 207 243 255 258 262 268 267 268 267 265 261 246 240 246 250 251 253 244 234
29 23 18 17 16 21 21 19 19 15 9 9 3 357 355 352 348 349 348 343 336 335 337 282 233 249 248 253 258 263 266 266 260 253 252 254 234 238 250 265 260 248
26 16 16 22 25 30 23 19 18 18 19 15 9 6 1 358 356 358 353 350 346 341 335 331 303 262 250 258 261 268 269 273 268 256 257 258 253 242 246 232 230 235
17 14 18 27 30 31 26 27 20 18 21 22 14 10 5 2 359 357 354 348 347 344 345 334 327 311 278 266 270 267 266 267 269 260 261 261 262 250 241 236 237 240
18 18 26 28 27 26 30 29 26 21 27 25 13 16 10 7 2 356 353 352 345 347 348 12 3 356 346 334 320 299 281 271 270 264 264 269 266 261 242 224 226 233
24 27 29 28 25 23 33 34 30 24 24 26 22 16 14 10 3 0 354 355 351 347 23 10 10 6 8 8 2 350 334 314 292 281 272 270 270 272 266 255 249 244
31 29 27 25 26 25 38 38 32 25 25 29 25 18 17 14 5 4 1 0 6 356 25 9 5 1 1 3 356 347 340 338 327 304 284 281 280 274 266 259 253 244
36 30 28 28 31 31 37 39 33 28 28 34 29 21 20 15 12 9 8 7 11 360 21 9 7 6 4 0 352 342 339 335 331 325 310 286 279 279 275 262 254 252
31 28 27 26 32 33 34 34 31 28 31 36 32 27 23 21 16 13 13 15 15 1 17 17 11 6 359 353 348 343 336 331 326 322 319 311 293 284 283 275 269 268
32 33 33 30 27 25 25 25 25 24 28 35 34 31 26 24 21 18 16 16 14 6 14 22 12 7 3 355 348 342 337 331 324 318 316 316 310 291 276 267 265 266
41 41 40 40 32 27 23 21 20 18 20 23 27 29 30 25 22 24 20 17 9 11 13 15 10 6 3 357 350 343 335 329 323 319 316 313 311 306 288 270 263 266
44 44 47 47 45 38 32 27 23 21 20 16 17 22 26 27 23 23 22 17 14 14 12 11 9 5 3 356 351 344 337 327 318 313 310 307 306 306 299 275 261 259
38 44 44 43 43 45 38 33 28 24 21 19 19 20 18 21 23 22 20 19 18 16 13 13 11 5 3 355 343 341 336 326 318 310 305 300 301 304 303 290 269 257
36 38 37 37 40 39 37 33 29 26 25 25 23 21 20 18 20 21 22 22 15 11 11 17 13 3 355 352 349 345 338 330 319 311 309 305 302 304 305 305 288 258
44 43 34 34 36 39 36 32 26 23 24 29 28 24 22 23 23 20 21 21 17 10 9 14 10 3 354 352 350 350 349 340 330 318 307 305 304 300 305 305 303 281
29 39 38 32 29 32 34 31 25 23 25 29 30 28 26 27 25 20 20 20 17 15 13 10 9 3 354 354 352 351 350 343 324 327 327 314 302 304 304 305 302 298
26 28 36 37 29 21 16 20 22 22 23 25 33 32 29 31 24 16 18 18 16 13 11 8 9 2 357 354 354 352 350 347 345 339 330 330 335 331 329 326 317 301
27 29 36 39 31 23 18 14 9 13 11 12 25 31 33 32 21 17 16 17 15 12 7 5 4 2 358 355 354 353 350 350 355 350 348 341 335 339 345 340 336 333
37 40 45 44 36 28 23 19 14 7 5 2 18 30 28 26 17 16 16 15 13 11 8 5 4 2 359 356 355 353 350 354 355 352 350 345 346 351 350 351 351 354
47 46 49 51 42 34 30 24 18 11 7 1 11 29 32 23 19 18 18 15 12 10 9 6 2 4 2 359 356 355 350 0 2 359 356 355 351 354 355 351 348 357
50 53 55 53 46 40 35 28 21 15 14 10 14 17 25 23 19 17 13 11 10 11 10 5 4 4 4 1 360 359 355 357 358 358 1 2 359 355 357 353 353 359
47 59 64 58 52 46 40 33 26 22 21 16 22 16 16 20 23 17 11 8 7 10 8 5 0 0 4 2 2 2 1 355 356 356 355 2 358 359 357 356 356 2
56 55 71 74 59 50 44 38 32 30 23 21 25 22 17 12 21 16 7 5 8 9 5 7 359 358 2 3 3 4 4 358 356 353 354 3 358 357 358 357 354 358
55 56 63 80 73 56 42 37 32 33 30 30 23 23 18 10 11 8 5 0 359 7 7 5 2 359 360 1 2 3 5 3 357 359 353 357 360 1 356 359 358 357